GW1975 Weather Reports


Display with metric or nautical units.
time (UTC)temp
F
wind
direction
speed
MPH
gust
MPH
rain 1hr
in
rain 24hr
in
rain mn
in
humidity
%
barometer
mb
20260905180735 98 275 1.0 4.0 0.00 0.00 0.00 43 1014.0
20260905180235 97 281 3.0 7.0 0.00 0.00 0.00 42 1014.0
20260905175735 97 271 3.0 5.0 0.00 0.00 0.00 43 1014.0
20260905175235 97 229 7.0 8.0 0.00 0.00 0.00 43 1014.0
20260905174736 97 306 5.0 5.0 0.00 0.00 0.00 43 1014.0
20260905174235 96 310 3.0 5.0 0.00 0.00 0.00 43 1014.0
20260905173735 97 252 3.0 6.0 0.00 0.00 0.00 42 1014.0
20260905173235 97 247 5.0 6.0 0.00 0.00 0.00 43 1014.0
20260905172736 97 277 3.0 6.0 0.00 0.00 0.00 43 1014.0
20260905172235 96 278 3.0 5.0 0.00 0.00 0.00 44 1014.0
20260905171736 96 259 4.0 5.0 0.00 0.00 0.00 44 1015.0
20260905171239 96 245 4.0 7.0 0.00 0.00 0.00 43 1014.0
20260905170737 96 305 2.0 6.0 0.00 0.00 0.00 44 1014.0
20260905170236 95 287 3.0 5.0 0.00 0.00 0.00 45 1015.0
20260905165736 95 245 3.0 5.0 0.00 0.00 0.00 45 1015.0
20260905165236 95 228 4.0 5.0 0.00 0.00 0.00 46 1015.0
20260905164735 95 297 4.0 4.0 0.00 0.00 0.00 47 1015.0
20260905164236 95 263 6.0 6.0 0.00 0.00 0.00 46 1015.0
20260905163735 95 292 4.0 5.0 0.00 0.00 0.00 46 1015.0
20260905163237 94 302 2.0 4.0 0.00 0.00 0.00 48 1015.0
20260905162735 94 289 5.0 5.0 0.00 0.00 0.00 47 1015.0
20260905162235 94 273 4.0 6.0 0.00 0.00 0.00 49 1015.0
20260905161735 93 268 3.0 7.0 0.00 0.00 0.00 48 1015.0
20260905161235 93 280 3.0 4.0 0.00 0.00 0.00 49 1015.0
20260905160736 93 254 2.0 5.0 0.00 0.00 0.00 50 1015.0
20260905160236 93 289 3.0 6.0 0.00 0.00 0.00 50 1015.0
20260905155735 93 279 3.0 3.0 0.00 0.00 0.00 51 1015.0
20260905155235 92 293 3.0 4.0 0.00 0.00 0.00 51 1015.0
20260905154736 92 266 2.0 5.0 0.00 0.00 0.00 52 1015.0
20260905154235 91 277 2.0 3.0 0.00 0.00 0.00 54 1015.0
20260905153735 91 288 2.0 4.0 0.00 0.00 0.00 56 1015.0
20260905153235 90 269 4.0 5.0 0.00 0.00 0.00 56 1015.0
20260905152735 90 241 3.0 5.0 0.00 0.00 0.00 58 1015.0
20260905152235 89 255 3.0 4.0 0.00 0.00 0.00 58 1015.0
20260905151735 88 251 3.0 6.0 0.00 0.00 0.00 59 1015.0
20260905151235 87 241 2.0 5.0 0.00 0.00 0.00 60 1015.0
20260905150736 88 250 3.0 4.0 0.00 0.00 0.00 61 1015.0
20260905150235 87 239 2.0 3.0 0.00 0.00 0.00 62 1015.0
20260905145735 87 282 2.0 4.0 0.00 0.00 0.00 61 1015.0
20260905145235 88 267 3.0 5.0 0.00 0.00 0.00 61 1015.0
20260905144735 88 266 3.0 5.0 0.00 0.00 0.00 61 1015.0
20260905144236 87 246 4.0 5.0 0.00 0.00 0.00 61 1015.0
20260905143735 86 264 4.0 5.0 0.00 0.00 0.00 62 1015.0
20260905143235 86 260 2.0 4.0 0.00 0.00 0.00 63 1015.0
20260905142735 86 274 3.0 4.0 0.00 0.00 0.00 63 1015.0
20260905142236 85 257 3.0 6.0 0.00 0.00 0.00 63 1015.0
20260905141735 85 271 3.0 5.0 0.00 0.00 0.00 63 1015.0
20260905141235 85 272 3.0 4.0 0.00 0.00 0.00 64 1015.0
20260905140738 85 258 3.0 7.0 0.00 0.00 0.00 64 1015.0
20260905140236 85 264 3.0 5.0 0.00 0.00 0.00 64 1015.0
20260905135735 84 257 2.0 4.0 0.00 0.00 0.00 65 1015.0
20260905134755 84 262 3.0 4.0 0.00 0.00 0.00 66 1015.0
20260905134235 84 274 3.0 5.0 0.00 0.00 0.00 66 1015.0
20260905133735 83 255 2.0 4.0 0.00 0.00 0.00 67 1015.0
20260905133235 83 249 3.0 3.0 0.00 0.00 0.00 68 1015.0
20260905132736 83 234 3.0 4.0 0.00 0.00 0.00 69 1015.0
20260905132235 83 250 2.0 4.0 0.00 0.00 0.00 69 1015.0
20260905131735 83 249 3.0 4.0 0.00 0.00 0.00 69 1015.0
20260905131235 82 254 3.0 3.0 0.00 0.00 0.00 70 1015.0
20260905130735 82 267 2.0 3.0 0.00 0.00 0.00 70 1015.0
20260905130235 82 262 2.0 3.0 0.00 0.00 0.00 71 1015.0
20260905125735 81 265 3.0 3.0 0.00 0.00 0.00 72 1015.0
20260905125235 80 248 2.0 2.0 0.00 0.00 0.00 73 1015.0
20260905124735 80 241 3.0 3.0 0.00 0.00 0.00 74 1015.0
20260905124235 80 274 1.0 2.0 0.00 0.00 0.00 75 1015.0
20260905123736 80 253 3.0 3.0 0.00 0.00 0.00 74 1015.0
20260905123236 80 249 2.0 2.0 0.00 0.00 0.00 74 1014.0
20260905122735 80 246 2.0 2.0 0.00 0.00 0.00 75 1014.0
20260905122235 80 252 2.0 3.0 0.00 0.00 0.00 75 1014.0
20260905121735 80 261 2.0 2.0 0.00 0.00 0.00 74 1014.0
20260905121236 80 246 1.0 2.0 0.00 0.00 0.00 75 1015.0
20260905120735 80 246 2.0 3.0 0.00 0.00 0.00 74 1015.0
20260905120235 80 248 2.0 3.0 0.00 0.00 0.00 74 1014.0
20260905115736 80 249 3.0 3.0 0.00 0.00 0.00 74 1014.0
20260905115235 80 228 2.0 2.0 0.00 0.00 0.00 74 1014.0
20260905114736 80 282 1.0 2.0 0.00 0.00 0.00 74 1014.0
20260905114235 80 244 2.0 3.0 0.00 0.00 0.00 74 1014.0
20260905113735 79 249 2.0 2.0 0.00 0.00 0.00 75 1014.0
20260905113235 79 232 1.0 2.0 0.00 0.00 0.00 76 1014.0
20260905112735 79 224 0.0 2.0 0.00 0.00 0.00 76 1014.0
20260905112235 79 236 2.0 2.0 0.00 0.00 0.00 77 1014.0
20260905111735 79 228 0.0 1.0 0.00 0.00 0.00 78 1014.0
20260905111235 79 245 0.0 1.0 0.00 0.00 0.00 78 1014.0
20260905110735 79 258 1.0 2.0 0.00 0.00 0.00 78 1014.0
20260905110237 79 254 0.0 1.0 0.00 0.00 0.00 78 1014.0
20260905105735 79 231 1.0 2.0 0.00 0.00 0.00 78 1014.0
20260905105235 79 260 1.0 1.0 0.00 0.00 0.00 77 1014.0
20260905104735 79 260 1.0 2.0 0.00 0.00 0.00 77 1014.0
20260905104235 79 253 1.0 2.0 0.00 0.00 0.00 77 1014.0
20260905103735 79 267 1.0 2.0 0.00 0.00 0.00 77 1014.0
20260905103235 79 247 1.0 2.0 0.00 0.00 0.00 77 1014.0
20260905102735 79 252 0.0 2.0 0.00 0.00 0.00 76 1014.0
20260905102236 79 223 1.0 2.0 0.00 0.00 0.00 76 1014.0
20260905101735 79 238 1.0 2.0 0.00 0.00 0.00 77 1014.0
20260905101235 79 242 1.0 2.0 0.00 0.00 0.00 76 1014.0
20260905100735 79 221 1.0 2.0 0.00 0.00 0.00 77 1014.0
20260905100235 79 227 1.0 2.0 0.00 0.00 0.00 77 1014.0
20260905095735 79 258 0.0 2.0 0.00 0.00 0.00 77 1014.0
20260905095235 79 249 1.0 2.0 0.00 0.00 0.00 78 1014.0
20260905094735 79 222 0.0 1.0 0.00 0.00 0.00 78 1014.0
20260905094235 79 242 0.0 1.0 0.00 0.00 0.00 77 1014.0
20260905093735 79 266 1.0 1.0 0.00 0.00 0.00 77 1014.0
20260905093235 79 261 1.0 2.0 0.00 0.00 0.00 77 1014.0
20260905092735 80 258 1.0 2.0 0.00 0.00 0.00 77 1014.0
20260905092235 80 254 0.0 2.0 0.00 0.00 0.00 76 1014.0
20260905091735 80 263 0.0 2.0 0.00 0.00 0.00 76 1014.0
20260905091235 80 249 1.0 2.0 0.00 0.00 0.00 76 1014.0
20260905090736 80 250 2.0 2.0 0.00 0.00 0.00 76 1014.0
20260905090235 80 257 1.0 2.0 0.00 0.00 0.00 75 1014.0
20260905085735 80 244 1.0 2.0 0.00 0.00 0.00 75 1014.0
20260905085235 80 260 1.0 2.0 0.00 0.00 0.00 75 1014.0
20260905084735 80 272 1.0 2.0 0.00 0.00 0.00 75 1014.0
20260905084235 80 230 0.0 2.0 0.00 0.00 0.00 75 1014.0
20260905083735 80 245 2.0 2.0 0.00 0.00 0.00 74 1014.0
20260905083235 81 232 1.0 2.0 0.00 0.00 0.00 74 1014.0
20260905082737 81 251 1.0 2.0 0.00 0.00 0.00 74 1014.0
20260905082235 81 243 2.0 3.0 0.00 0.00 0.00 74 1014.0
20260905081735 81 268 0.0 1.0 0.00 0.00 0.00 74 1014.0
20260905081236 81 235 0.0 2.0 0.00 0.00 0.00 73 1014.0
20260905080735 81 263 1.0 2.0 0.00 0.00 0.00 73 1014.0
20260905080235 81 262 1.0 2.0 0.00 0.00 0.00 73 1014.0
20260905075735 81 272 0.0 2.0 0.00 0.00 0.00 72 1014.0
20260905075235 81 275 1.0 2.0 0.00 0.00 0.00 72 1014.0
20260905074735 81 186 0.0 0.0 0.00 0.00 0.00 72 1014.0
20260905074235 81 258 1.0 1.0 0.00 0.00 0.00 72 1014.0
20260905073735 81 275 0.0 1.0 0.00 0.00 0.00 72 1014.0
20260905073235 81 258 1.0 2.0 0.00 0.00 0.00 71 1014.0
20260905072735 81 256 1.0 2.0 0.00 0.00 0.00 71 1014.0
20260905072236 81 226 2.0 2.0 0.00 0.00 0.00 71 1014.0
20260905071735 81 253 1.0 2.0 0.00 0.00 0.00 72 1014.0
20260905071235 81 248 1.0 2.0 0.00 0.00 0.00 71 1014.0
20260905070736 81 246 1.0 2.0 0.00 0.00 0.00 71 1014.0
20260905070236 82 257 1.0 2.0 0.00 0.00 0.00 71 1014.0
20260905065735 82 267 1.0 2.0 0.00 0.00 0.00 71 1014.0
20260905065235 82 253 1.0 2.0 0.00 0.00 0.00 71 1014.0
20260905064735 82 261 1.0 2.0 0.00 0.00 0.00 70 1014.0
20260905064235 82 255 1.0 2.0 0.00 0.00 0.00 70 1014.0
20260905063736 82 229 1.0 2.0 0.00 0.00 0.00 70 1014.0
20260905063235 82 242 1.0 2.0 0.00 0.00 0.00 70 1014.0
20260905062736 82 252 1.0 2.0 0.00 0.00 0.00 70 1014.0
20260905062235 82 247 1.0 2.0 0.00 0.00 0.00 69 1014.0
20260905061736 82 263 1.0 2.0 0.00 0.00 0.00 69 1014.0
20260905061235 82 266 1.0 2.0 0.00 0.00 0.00 69 1014.0
20260905060735 82 243 0.0 2.0 0.00 0.00 0.00 69 1014.0
20260905060235 82 245 2.0 2.0 0.00 0.00 0.00 69 1015.0
20260905055735 82 264 2.0 2.0 0.00 0.00 0.00 69 1015.0
20260905055237 82 269 0.0 2.0 0.00 0.00 0.00 69 1014.0
20260905054735 83 257 1.0 1.0 0.00 0.00 0.00 69 1014.0
20260905054235 83 261 1.0 2.0 0.00 0.00 0.00 68 1015.0
20260905053735 83 269 1.0 2.0 0.00 0.00 0.00 69 1015.0
20260905053235 83 269 0.0 2.0 0.00 0.00 0.00 69 1014.0
20260905052735 82 256 1.0 2.0 0.00 0.00 0.00 67 1015.0
20260905052235 82 234 2.0 2.0 0.00 0.00 0.00 68 1015.0
20260905051736 82 237 1.0 2.0 0.00 0.00 0.00 70 1015.0
20260905051235 82 245 1.0 2.0 0.00 0.00 0.00 70 1014.0
20260905050735 83 258 0.0 2.0 0.00 0.00 0.00 71 1015.0
20260905050249 83 260 1.0 2.0 0.00 0.00 0.00 70 1014.0
20260905045735 83 255 0.0 1.0 0.00 0.00 0.00 71 1014.0
20260905045235 83 256 1.0 2.0 0.00 0.00 0.00 71 1014.0
20260905044735 83 244 0.0 1.0 0.00 0.00 0.00 69 1014.0
20260905043758 83 269 2.0 2.0 0.00 0.00 0.00 72 1014.0
20260905043235 84 251 1.0 2.0 0.00 0.00 0.00 71 1015.0
20260905042735 84 252 2.0 2.0 0.00 0.00 0.00 70 1015.0
20260905042235 84 264 1.0 2.0 0.00 0.00 0.00 71 1015.0
20260905041735 84 253 1.0 2.0 0.00 0.00 0.00 70 1014.0
20260905041236 84 240 2.0 2.0 0.00 0.00 0.00 70 1015.0
20260905040735 84 266 0.0 2.0 0.00 0.00 0.00 69 1014.0
20260905040235 84 251 1.0 2.0 0.00 0.00 0.00 69 1014.0
20260905035736 84 256 1.0 2.0 0.00 0.00 0.00 69 1014.0
20260905035235 84 250 2.0 2.0 0.00 0.00 0.00 68 1014.0
20260905034735 84 236 1.0 2.0 0.00 0.00 0.00 68 1014.0
20260905034235 85 251 1.0 2.0 0.00 0.00 0.00 68 1015.0
20260905033735 85 228 0.0 1.0 0.00 0.00 0.00 66 1015.0
20260905033235 85 249 1.0 2.0 0.00 0.00 0.00 66 1015.0
20260905032735 86 255 0.0 1.0 0.00 0.00 0.00 65 1014.0
20260905032235 86 261 1.0 2.0 0.00 0.00 0.00 64 1014.0
20260905031735 86 221 2.0 2.0 0.00 0.00 0.00 62 1015.0
20260905031235 86 243 1.0 2.0 0.00 0.00 0.00 60 1015.0
20260905030737 86 249 2.0 2.0 0.00 0.00 0.00 60 1015.0
20260905030235 87 236 2.0 2.0 0.00 0.00 0.00 60 1015.0
20260905025735 87 246 0.0 1.0 0.00 0.00 0.00 60 1014.0
20260905025235 87 264 2.0 2.0 0.00 0.00 0.00 59 1014.0
20260905024735 87 257 2.0 2.0 0.00 0.00 0.00 58 1014.0
20260905024235 87 251 2.0 2.0 0.00 0.00 0.00 59 1014.0
20260905023735 87 246 1.0 2.0 0.00 0.00 0.00 59 1014.0
20260905023235 87 256 1.0 2.0 0.00 0.00 0.00 59 1014.0
20260905022735 87 271 1.0 2.0 0.00 0.00 0.00 58 1014.0
20260905022235 88 266 1.0 2.0 0.00 0.00 0.00 58 1014.0
20260905021735 88 251 1.0 2.0 0.00 0.00 0.00 58 1014.0
20260905021235 88 250 1.0 2.0 0.00 0.00 0.00 57 1014.0
20260905020735 88 266 2.0 2.0 0.00 0.00 0.00 57 1014.0
20260905020235 88 263 1.0 2.0 0.00 0.00 0.00 57 1014.0
20260905015736 89 253 2.0 2.0 0.00 0.00 0.00 57 1014.0
20260905015236 89 244 2.0 2.0 0.00 0.00 0.00 56 1014.0
20260905014735 89 257 1.0 2.0 0.00 0.00 0.00 55 1014.0
20260905014236 89 255 2.0 2.0 0.00 0.00 0.00 55 1014.0
20260905013735 89 254 2.0 2.0 0.00 0.00 0.00 55 1014.0
20260905013235 89 272 2.0 2.0 0.00 0.00 0.00 54 1014.0
20260905012735 90 254 1.0 2.0 0.00 0.00 0.00 54 1014.0
20260905012235 90 243 2.0 2.0 0.00 0.00 0.00 54 1014.0
20260905011735 90 231 2.0 2.0 0.00 0.00 0.00 54 1014.0
20260905011235 91 245 2.0 2.0 0.00 0.00 0.00 53 1014.0
20260905010735 91 233 2.0 2.0 0.00 0.00 0.00 52 1013.0
20260905010236 92 254 2.0 2.0 0.00 0.00 0.00 51 1014.0
20260905005736 92 248 2.0 3.0 0.00 0.00 0.00 50 1014.0
20260905005235 93 262 1.0 2.0 0.00 0.00 0.00 49 1013.0
20260905004735 93 246 2.0 2.0 0.00 0.00 0.00 48 1014.0
20260905004235 94 242 2.0 3.0 0.00 0.00 0.00 47 1014.0
20260905003735 94 254 2.0 2.0 0.00 0.00 0.00 47 1014.0
20260905003236 95 259 2.0 2.0 0.00 0.00 0.00 45 1013.0
20260905002735 95 245 1.0 2.0 0.00 0.00 0.00 45 1014.0
20260905002235 96 265 1.0 2.0 0.00 0.00 0.00 44 1014.0
20260905001735 96 266 2.0 2.0 0.00 0.00 0.00 44 1013.0
20260905001235 97 248 2.0 2.0 0.00 0.00 0.00 43 1014.0
20260905000736 97 249 2.0 2.0 0.00 0.00 0.00 43 1013.0
20260905000235 97 264 2.0 2.0 0.00 0.00 0.00 42 1014.0
20260904235736 98 247 2.0 2.0 0.00 0.00 0.00 41 1013.0
20260904235235 98 248 2.0 3.0 0.00 0.00 0.00 40 1014.0
20260904234735 98 252 2.0 3.0 0.00 0.00 0.00 41 1013.0
20260904234235 99 248 2.0 3.0 0.00 0.00 0.00 39 1013.0
20260904233735 99 245 2.0 3.0 0.00 0.00 0.00 39 1013.0
20260904233235 100 263 2.0 3.0 0.00 0.00 0.00 39 1013.0
20260904232736 100 245 2.0 3.0 0.00 0.00 0.00 38 1013.0
20260904232235 101 264 2.0 3.0 0.00 0.00 0.00 36 1013.0
20260904231735 102 228 2.0 3.0 0.00 0.00 0.00 36 1013.0
20260904231235 101 266 2.0 3.0 0.00 0.00 0.00 37 1013.0
20260904230736 101 239 3.0 4.0 0.00 0.00 0.00 37 1013.0
20260904230235 101 291 2.0 3.0 0.00 0.00 0.00 37 1013.0
20260904225737 101 237 3.0 4.0 0.00 0.00 0.00 37 1013.0
20260904225235 101 278 3.0 6.0 0.00 0.00 0.00 36 1013.0
20260904224735 101 259 2.0 3.0 0.00 0.00 0.00 37 1013.0
20260904224235 101 241 2.0 4.0 0.00 0.00 0.00 37 1013.0
20260904223736 101 268 2.0 4.0 0.00 0.00 0.00 37 1013.0
20260904223235 100 278 2.0 4.0 0.00 0.00 0.00 37 1013.0
20260904222735 100 235 4.0 4.0 0.00 0.00 0.00 37 1013.0
20260904222235 101 243 2.0 3.0 0.00 0.00 0.00 37 1013.0
20260904221735 101 265 2.0 4.0 0.00 0.00 0.00 36 1013.0
20260904221236 101 281 2.0 3.0 0.00 0.00 0.00 37 1013.0
20260904220736 100 229 2.0 5.0 0.00 0.00 0.00 38 1013.0
20260904220235 100 230 2.0 4.0 0.00 0.00 0.00 38 1013.0
20260904215735 99 195 2.0 2.0 0.00 0.00 0.00 39 1013.0
20260904215236 99 215 3.0 4.0 0.00 0.00 0.00 39 1014.0
20260904214735 99 269 3.0 6.0 0.00 0.00 0.00 38 1013.0
20260904214235 99 285 2.0 4.0 0.00 0.00 0.00 38 1013.0
20260904213736 100 251 4.0 5.0 0.00 0.00 0.00 38 1014.0
20260904213236 99 265 2.0 4.0 0.00 0.00 0.00 39 1014.0
20260904212735 99 264 4.0 5.0 0.00 0.00 0.00 38 1014.0
20260904212235 99 160 0.0 4.0 0.00 0.00 0.00 39 1014.0
20260904211735 98 318 1.0 3.0 0.00 0.00 0.00 38 1014.0
20260904211235 99 259 3.0 5.0 0.00 0.00 0.00 38 1014.0
20260904210735 99 280 2.0 3.0 0.00 0.00 0.00 38 1014.0
20260904210235 99 264 2.0 6.0 0.00 0.00 0.00 38 1014.0
20260904205739 98 258 3.0 7.0 0.00 0.00 0.00 38 1014.0
20260904205235 98 259 3.0 5.0 0.00 0.00 0.00 39 1014.0
20260904204735 98 232 3.0 4.0 0.00 0.00 0.00 39 1014.0
20260904204235 99 255 4.0 7.0 0.00 0.00 0.00 38 1014.0
20260904203735 99 269 1.0 3.0 0.00 0.00 0.00 38 1014.0
20260904203236 99 244 4.0 5.0 0.00 0.00 0.00 38 1014.0
20260904202735 98 257 3.0 4.0 0.00 0.00 0.00 38 1014.0
20260904202236 98 237 3.0 6.0 0.00 0.00 0.00 38 1014.0
20260904201736 98 262 3.0 5.0 0.00 0.00 0.00 38 1015.0
20260904201235 97 217 2.0 3.0 0.00 0.00 0.00 39 1015.0
20260904200736 97 197 2.0 3.0 0.00 0.00 0.00 39 1015.0
20260904200235 98 156 3.0 5.0 0.00 0.00 0.00 38 1015.0
20260904195736 98 232 4.0 5.0 0.00 0.00 0.00 39 1015.0
20260904195235 99 243 2.0 8.0 0.00 0.00 0.00 38 1015.0
20260904194736 99 246 5.0 5.0 0.00 0.00 0.00 39 1015.0
20260904194235 98 264 3.0 4.0 0.00 0.00 0.00 39 1015.0
20260904193736 98 247 2.0 4.0 0.00 0.00 0.00 40 1015.0
20260904193238 98 239 3.0 5.0 0.00 0.00 0.00 40 1015.0
20260904192737 97 241 2.0 2.0 0.00 0.00 0.00 40 1015.0
20260904192236 97 249 3.0 5.0 0.00 0.00 0.00 40 1015.0
20260904191736 97 234 2.0 4.0 0.00 0.00 0.00 41 1015.0
20260904191236 98 227 3.0 9.0 0.00 0.00 0.00 40 1015.0
20260904190735 97 238 4.0 4.0 0.00 0.00 0.00 42 1015.0
20260904190235 97 234 2.0 5.0 0.00 0.00 0.00 41 1015.0
20260904185736 98 264 5.0 5.0 0.00 0.00 0.00 41 1015.0
20260904185237 97 256 1.0 5.0 0.00 0.00 0.00 42 1016.0
20260904184815 97 253 2.0 4.0 0.00 0.00 0.00 43 1015.0
20260904184235 97 233 2.0 7.0 0.00 0.00 0.00 40 1016.0
20260904183735 97 254 5.0 7.0 0.00 0.00 0.00 41 1016.0
20260904183235 97 238 3.0 4.0 0.00 0.00 0.00 43 1016.0
20260904182736 97 269 5.0 7.0 0.00 0.00 0.00 43 1016.0
20260904182235 96 246 2.0 3.0 0.00 0.00 0.00 44 1016.0
20260904181735 96 253 4.0 10.0 0.00 0.00 0.00 43 1016.0
20260904181237 96 275 4.0 6.0 0.00 0.00 0.00 44 1016.0